Weather in Tsenogora

Russia / Arkhangel'skaya Oblast'     64°52′58″N   46°43′01″E
temp.,
°C
wind,
m/s
gust,
m/s
humid.,
%
clouds,
%
prec.,
mm/h
press.,
hPa
HPBL,
m
16 april, fri
fri1600:00−2sw248870 0.0 102879
03:00−1sw288099 0.0 1028278
06:000wsw387891 0.0 1028372
09:00+3wsw477374 0.0 1028678
12:00+5wnw4971100 0.0 10281338
15:00+4wnw4892100 0.3 1029824
18:00+5nw487412 0.3 1028525
21:00+3wnw41083100 0.3 1029907
17 april, sat
sat1700:00+2wnw4118592 0.0 1029644
03:00+1w399199 0.0 1029604
06:00+1w4138992 0.0 1027688
09:00+3wnw51284100 0.0 1026900
12:00+6wnw6137399 0.0 10261440
15:00+6nw6147397 0.3 10261579
18:00+2nnw41096100 0.6 1027787
21:00−1n48778 1.1 1030780
18 april, sun
sun1800:00−3nne388240 0.0 1033632
03:00−4ne36825 0.0 1036445
06:00−4ene346866 0.0 1037440
09:00−1ene234650 0.0 1038755
12:00+2ene22355 0.0 10381124
15:00+3ene11334 0.0 10381295
18:00+2ne11475 0.0 103811
21:00−2ese11597 0.0 103810
19 april, mon
mon1900:00−2s225963 0.0 103823
03:00−2sw246374 0.0 103891
06:000sw2658100 0.0 1037211
09:00+4wsw364372 0.0 1037584
12:00+7wsw453727 0.0 10351101
15:00+7w46415 0.0 10341183
18:00+6wsw25576 0.0 1033155
21:00+2sw277225 0.0 1033119
20 april, tue
tue2000:00+1sw27796 0.0 1033140
03:000sw298231 0.0 1033174
06:00+2sw38725 0.0 1033249
09:00+6wsw35555 0.0 1032491
12:00+9wsw34455 0.0 1032950
15:00+11wsw23394 0.0 10311193
18:00+9ssw114854 0.0 103019
21:00+5s22592 0.0 103013